sat.trackr.live / text

‹ back to catalog

STARLINK-36473

NORAD 67325 · 2026-002W

PAYLOAD ACTIVE UNKNOWN

§ Identity

Operator
Country
US
Launch date
2026-01-04
Launch site
AFETR
Launch vehicle
Mass (kg)
RCS (m²)

Purposes: comms

External: N2YO · Heavens-Above · Gunter

§ Orbital elements

Epoch: 2026-05-25T00:24:56.383200Z

Period
94.27 min
Inclination
42.9996°
Eccentricity
0.0000277
Mean motion
15.27584137 rev/d
Perigee alt
482.8 km
Apogee alt
483.2 km
Semi-major
6,861.2 km
B*
4.0020e-4
RAAN
254.0847°
Arg perigee
346.2952°
Mean anomaly
13.7892°
Rev number
2,291

§ Raw data

STARLINK-364731 67325U 26002W   26145.01731925  .00010768  00000+0  40020-3 0  99992 67325  42.9996 254.0847 0000277 346.2952  13.7892 15.27584137 22918

JSON: /api/v1/satellites/67325 · /tle

For live sub-satellite position, see the globe view (requires WebGL).

§ Visibility from observer

Set your observer location to see the next 7 days of passes ≥ 10°. The values pass through the URL so the page stays shareable.

No JS? Fill the form by hand. The geolocation button needs JavaScript.